• In Lithuania
  • List of Countries
  • For 7 days
  • Water Temperature
  • Satellite Maps
  • Weather Map
  • Weather Widgets
  • user-avatar
    Login

    Hourly Weather Freetown

    Today, 17 July, Tuesday

    Time Temperature Precipitation Wind Pressure Humidity
    00:00 +25°C° 1.7 mm 5 mps 757 mmHg 93%
    01:00 +26°C° 1.7 mm 5 mps 757 mmHg 93%
    02:00 +26°C° 1.7 mm 5 mps 757 mmHg 92%
    03:00 +25°C° 1.6 mm 5 mps 756 mmHg 93%
    04:00 +25°C° 1.6 mm 5 mps 756 mmHg 93%
    05:00 +25°C° 1.6 mm 5 mps 756 mmHg 93%
    06:00 +26°C° 1.6 mm 5 mps 757 mmHg 92%
    07:00 +26°C° 1.6 mm 5 mps 757 mmHg 91%
    08:00 +27°C° 1.6 mm 5 mps 757 mmHg 89%
    09:00 +27°C° 1.7 mm 5 mps 757 mmHg 87%
    10:00 +28°C° 1.7 mm 5 mps 757 mmHg 85%
    11:00 +29°C° 1.7 mm 5 mps 758 mmHg 83%
    12:00 +29°C° 1.4 mm 5 mps 757 mmHg 83%
    13:00 +29°C° 1.4 mm 6 mps 757 mmHg 83%
    14:00 +28°C° 1.4 mm 6 mps 756 mmHg 83%
    15:00 +28°C° 0.8 mm 5 mps 756 mmHg 85%
    16:00 +28°C° 0.8 mm 5 mps 756 mmHg 87%
    17:00 +27°C° 0.8 mm 5 mps 756 mmHg 88%
    18:00 +27°C° 0.5 mm 5 mps 756 mmHg 90%
    19:00 +26°C° 0.5 mm 4 mps 757 mmHg 92%
    20:00 +25°C° 0.5 mm 4 mps 757 mmHg 94%
    21:00 +25°C° 0.6 mm 4 mps 757 mmHg 94%
    22:00 +25°C° 0.6 mm 4 mps 758 mmHg 94%
    23:00 +25°C° 0.6 mm 4 mps 758 mmHg 95%

    Tomorrow, 18 July, Wednesday

    Time Temperature Precipitation Wind Pressure Humidity
    00:00 +25°C° 0.9 mm 3 mps 757 mmHg 95%
    01:00 +25°C° 0.9 mm 3 mps 757 mmHg 95%
    02:00 +25°C° 0.9 mm 3 mps 756 mmHg 96%
    03:00 +24°C° 1 mm 3 mps 756 mmHg 96%
    04:00 +24°C° 1 mm 3 mps 756 mmHg 96%
    05:00 +24°C° 1 mm 3 mps 756 mmHg 96%
    06:00 +25°C° 1.4 mm 3 mps 757 mmHg 92%
    07:00 +27°C° 1.4 mm 3 mps 757 mmHg 89%
    08:00 +28°C° 1.4 mm 2 mps 757 mmHg 85%
    09:00 +28°C° 1.5 mm 3 mps 757 mmHg 83%
    10:00 +29°C° 1.5 mm 3 mps 757 mmHg 80%
    11:00 +30°C° 1.5 mm 3 mps 758 mmHg 78%
    12:00 +30°C° 1.1 mm 4 mps 757 mmHg 79%
    13:00 +29°C° 1.1 mm 4 mps 756 mmHg 79%
    14:00 +29°C° 1.1 mm 4 mps 756 mmHg 80%
    15:00 +29°C° 0.6 mm 4 mps 756 mmHg 83%
    16:00 +28°C° 0.6 mm 4 mps 756 mmHg 85%
    17:00 +28°C° 0.6 mm 4 mps 756 mmHg 87%
    18:00 +27°C° 0.2 mm 4 mps 756 mmHg 89%
    19:00 +26°C° 0.2 mm 4 mps 757 mmHg 91%
    20:00 +26°C° 0.2 mm 4 mps 757 mmHg 93%
    21:00 +26°C° 0.8 mm 3 mps 757 mmHg 94%
    22:00 +26°C° 0.8 mm 3 mps 758 mmHg 94%
    23:00 +25°C° 0.8 mm 3 mps 758 mmHg 94%

    Day after tomorrow, 19 July, Thursday

    Time Temperature Precipitation Wind Pressure Humidity
    00:00 +25°C° 1.2 mm 3 mps 757 mmHg 94%
    01:00 +25°C° 1.2 mm 3 mps 757 mmHg 94%
    02:00 +25°C° 1.2 mm 3 mps 756 mmHg 95%
    03:00 +25°C° 0.8 mm 2 mps 756 mmHg 95%
    04:00 +25°C° 0.8 mm 2 mps 756 mmHg 95%
    05:00 +25°C° 0.8 mm 2 mps 756 mmHg 95%
    06:00 +25°C° 0.9 mm 2 mps 756 mmHg 95%
    07:00 +25°C° 0.9 mm 2 mps 757 mmHg 95%
    08:00 +25°C° 0.9 mm 2 mps 757 mmHg 95%
    09:00 +25°C° 1.4 mm 1 mps 757 mmHg 95%
    10:00 +25°C° 1.4 mm 1 mps 757 mmHg 95%
    11:00 +25°C° 1.4 mm 1 mps 757 mmHg 95%
    12:00 +26°C° 0.4 mm 2 mps 757 mmHg 92%
    13:00 +27°C° 0.4 mm 3 mps 756 mmHg 89%
    14:00 +28°C° 0.4 mm 3 mps 755 mmHg 86%
    15:00 +28°C° 0 mm 4 mps 755 mmHg 84%
    16:00 +28°C° 0 mm 4 mps 755 mmHg 83%
    17:00 +28°C° 0 mm 4 mps 755 mmHg 81%
    18:00 +27°C° 0 mm 4 mps 756 mmHg 85%
    19:00 +26°C° 0 mm 4 mps 756 mmHg 89%
    20:00 +26°C° 0 mm 3 mps 757 mmHg 93%
    21:00 +25°C° 0.4 mm 3 mps 757 mmHg 93%
    22:00 +25°C° 0.4 mm 3 mps 757 mmHg 94%
    23:00 +25°C° 0.4 mm 3 mps 757 mmHg 94%

    20 July, Friday

    Time Temperature Precipitation Wind Pressure Humidity
    00:00 +25°C° 1 mm 3 mps 756 mmHg 94%
    01:00 +25°C° 1 mm 3 mps 756 mmHg 95%
    02:00 +25°C° 1 mm 3 mps 755 mmHg 95%
    03:00 +25°C° 0.9 mm 3 mps 755 mmHg 95%
    04:00 +25°C° 0.9 mm 3 mps 755 mmHg 96%
    05:00 +25°C° 0.9 mm 3 mps 755 mmHg 96%
    06:00 +25°C° 2.4 mm 3 mps 756 mmHg 95%
    07:00 +25°C° 2.4 mm 3 mps 756 mmHg 95%
    08:00 +26°C° 2.4 mm 3 mps 757 mmHg 95%
    09:00 +27°C° 1.2 mm 3 mps 757 mmHg 90%
    10:00 +28°C° 1.2 mm 3 mps 756 mmHg 86%
    11:00 +29°C° 1.2 mm 3 mps 756 mmHg 82%
    12:00 +29°C° 0.5 mm 3 mps 756 mmHg 83%
    13:00 +28°C° 0.5 mm 4 mps 755 mmHg 83%
    14:00 +28°C° 0.5 mm 4 mps 755 mmHg 84%
    15:00 +27°C° 0.7 mm 4 mps 755 mmHg 87%
    16:00 +27°C° 0.7 mm 4 mps 755 mmHg 90%
    17:00 +26°C° 0.7 mm 4 mps 755 mmHg 93%
    18:00 +26°C° 0.8 mm 4 mps 755 mmHg 94%
    19:00 +26°C° 0.8 mm 4 mps 756 mmHg 95%
    20:00 +25°C° 0.8 mm 4 mps 756 mmHg 96%
    21:00 +25°C° 0.9 mm 4 mps 756 mmHg 95%
    22:00 +25°C° 0.9 mm 4 mps 756 mmHg 95%
    23:00 +25°C° 0.9 mm 4 mps 757 mmHg 95%

    21 July, Saturday

    Time Temperature Precipitation Wind Pressure Humidity
    00:00 +25°C° 1.4 mm 4 mps 756 mmHg 95%
    01:00 +25°C° 1.4 mm 4 mps 755 mmHg 95%
    02:00 +25°C° 1.4 mm 4 mps 755 mmHg 95%
    03:00 +25°C° 2.1 mm 4 mps 755 mmHg 95%
    04:00 +25°C° 2.1 mm 4 mps 755 mmHg 95%
    05:00 +25°C° 2.1 mm 4 mps 755 mmHg 95%
    06:00 +25°C° 2.4 mm 4 mps 756 mmHg 95%
    07:00 +25°C° 2.4 mm 5 mps 756 mmHg 95%
    08:00 +25°C° 2.4 mm 5 mps 757 mmHg 95%
    09:00 +25°C° 2.5 mm 5 mps 757 mmHg 95%
    10:00 +25°C° 2.5 mm 5 mps 757 mmHg 94%
    11:00 +26°C° 2.5 mm 5 mps 757 mmHg 94%
    12:00 +26°C° 2.2 mm 5 mps 757 mmHg 93%
    13:00 +26°C° 2.2 mm 5 mps 756 mmHg 93%
    14:00 +26°C° 2.2 mm 5 mps 756 mmHg 92%
    15:00 +26°C° 1.6 mm 5 mps 756 mmHg 92%
    16:00 +26°C° 1.6 mm 5 mps 756 mmHg 92%
    17:00 +26°C° 1.6 mm 5 mps 756 mmHg 92%
    18:00 +26°C° 1.4 mm 5 mps 756 mmHg 93%
    19:00 +26°C° 1.4 mm 5 mps 757 mmHg 94%
    20:00 +25°C° 1.4 mm 4 mps 757 mmHg 96%
    21:00 +25°C° 1.7 mm 4 mps 757 mmHg 96%
    22:00 +25°C° 1.7 mm 4 mps 757 mmHg 96%
    23:00 +25°C° 1.7 mm 4 mps 758 mmHg 96%

    22 July, Sunday

    Time Temperature Precipitation Wind Pressure Humidity
    00:00 +25°C° 1.4 mm 3 mps 757 mmHg 96%
    01:00 +25°C° 1.4 mm 3 mps 756 mmHg 96%
    02:00 +25°C° 1.4 mm 3 mps 756 mmHg 96%
    03:00 +25°C° 1.1 mm 3 mps 756 mmHg 96%
    04:00 +25°C° 1.1 mm 3 mps 756 mmHg 96%
    05:00 +25°C° 1.1 mm 3 mps 756 mmHg 96%
    06:00 +25°C° 1.4 mm 4 mps 757 mmHg 95%
    07:00 +26°C° 1.4 mm 4 mps 757 mmHg 94%
    08:00 +26°C° 1.4 mm 4 mps 757 mmHg 93%
    09:00 +27°C° 2 mm 4 mps 757 mmHg 90%
    10:00 +28°C° 2 mm 4 mps 757 mmHg 86%
    11:00 +29°C° 2 mm 4 mps 758 mmHg 83%
    12:00 +28°C° 2.2 mm 4 mps 757 mmHg 85%
    13:00 +28°C° 2.2 mm 5 mps 756 mmHg 87%
    14:00 +27°C° 2.2 mm 5 mps 756 mmHg 89%
    15:00 +27°C° 0.8 mm 4 mps 756 mmHg 91%
    16:00 +26°C° 0.8 mm 4 mps 756 mmHg 93%
    17:00 +26°C° 0.8 mm 4 mps 756 mmHg 95%
    18:00 +26°C° 0.9 mm 3 mps 757 mmHg 95%
    19:00 +26°C° 0.9 mm 3 mps 757 mmHg 96%
    20:00 +26°C° 0.9 mm 3 mps 758 mmHg 96%
    21:00 +25°C° 1.2 mm 3 mps 758 mmHg 96%
    22:00 +25°C° 1.2 mm 3 mps 758 mmHg 96%
    23:00 +25°C° 1.2 mm 3 mps 758 mmHg 97%
    Show more